| time (UTC) | temp F | wind direction | speed MPH | gust MPH | rain 1hr in | rain 24hr in | rain mn in | humidity % | barometer mb |
| 20260508045517 | 30 | 293 | 3.0 | 4.0 | 0.00 | 0.00 | 0.00 | 56 | 1008.1 |
| 20260508044537 | 31 | 270 | 3.0 | 4.0 | 0.00 | 0.00 | 0.00 | 56 | 1008.2 |
| 20260508043517 | 30 | 248 | 3.0 | 4.0 | 0.00 | 0.00 | 0.00 | 55 | 1008.2 |
| 20260508042517 | 31 | 0.0 | 0.0 | 0.00 | 0.00 | 0.00 | 56 | 1008.2 | |
| 20260508041517 | 30 | 0.0 | 2.0 | 0.00 | 0.00 | 0.00 | 57 | 1008.2 | |
| 20260508040537 | 30 | 248 | 2.0 | 3.0 | 0.00 | 0.00 | 0.00 | 58 | 1008.3 |
| 20260508035517 | 30 | 248 | 2.0 | 3.0 | 0.00 | 0.00 | 0.00 | 58 | 1008.3 |
| 20260508034517 | 30 | 248 | 3.0 | 4.0 | 0.00 | 0.00 | 0.00 | 59 | 1008.3 |
| 20260508033517 | 31 | 248 | 3.0 | 4.0 | 0.00 | 0.00 | 0.00 | 58 | 1008.3 |
| 20260508032517 | 31 | 248 | 3.0 | 4.0 | 0.00 | 0.00 | 0.00 | 57 | 1008.4 |
| 20260508031517 | 31 | 248 | 3.0 | 3.0 | 0.00 | 0.00 | 0.00 | 57 | 1008.4 |
| 20260508030517 | 32 | 248 | 2.0 | 3.0 | 0.00 | 0.00 | 0.00 | 57 | 1008.2 |
| 20260508025517 | 33 | 248 | 3.0 | 4.0 | 0.00 | 0.00 | 0.00 | 56 | 1008.2 |
| 20260508024517 | 33 | 225 | 2.0 | 4.0 | 0.00 | 0.00 | 0.00 | 56 | 1008.2 |
| 20260508023517 | 33 | 225 | 2.0 | 3.0 | 0.00 | 0.00 | 0.00 | 57 | 1008.2 |
| 20260508022517 | 33 | 225 | 2.0 | 3.0 | 0.00 | 0.00 | 0.00 | 59 | 1008.0 |
| 20260508021517 | 34 | 225 | 1.0 | 3.0 | 0.00 | 0.00 | 0.00 | 60 | 1008.0 |
| 20260508020517 | 34 | 225 | 2.0 | 3.0 | 0.00 | 0.00 | 0.00 | 61 | 1008.0 |
| 20260508015516 | 36 | 225 | 2.0 | 3.0 | 0.00 | 0.00 | 0.00 | 61 | 1007.9 |
| 20260508014517 | 36 | 225 | 1.0 | 3.0 | 0.00 | 0.00 | 0.00 | 61 | 1007.7 |
| 20260508013516 | 37 | 0.0 | 2.0 | 0.00 | 0.00 | 0.00 | 61 | 1007.5 | |
| 20260508012516 | 38 | 0.0 | 2.0 | 0.00 | 0.00 | 0.00 | 61 | 1007.5 | |
| 20260508011516 | 38 | 225 | 1.0 | 2.0 | 0.00 | 0.00 | 0.00 | 61 | 1007.4 |
| 20260508010536 | 38 | 225 | 1.0 | 2.0 | 0.00 | 0.00 | 0.00 | 62 | 1007.5 |
| 20260508005516 | 39 | 0.0 | 2.0 | 0.00 | 0.00 | 0.00 | 63 | 1007.4 | |
| 20260508004517 | 39 | 225 | 1.0 | 4.0 | 0.00 | 0.00 | 0.00 | 62 | 1007.4 |
| 20260508003557 | 40 | 225 | 2.0 | 4.0 | 0.00 | 0.00 | 0.00 | 60 | 1007.3 |
| 20260508002516 | 42 | 225 | 3.0 | 4.0 | 0.00 | 0.00 | 0.00 | 54 | 1007.4 |
| 20260508001517 | 47 | 203 | 3.0 | 7.0 | 0.00 | 0.00 | 0.00 | 41 | 1007.4 |
| 20260508000516 | 49 | 315 | 1.0 | 3.0 | 0.00 | 0.00 | 0.00 | 24 | 1007.3 |
| 20260507235516 | 49 | 0 | 5.0 | 11.0 | 0.00 | 0.00 | 0.00 | 24 | 1007.2 |
| 20260507234536 | 49 | 338 | 5.0 | 15.0 | 0.00 | 0.00 | 0.00 | 24 | 1007.2 |
| 20260507233536 | 49 | 248 | 5.0 | 11.0 | 0.00 | 0.00 | 0.00 | 24 | 1007.1 |
| 20260507232516 | 51 | 338 | 5.0 | 14.0 | 0.00 | 0.00 | 0.00 | 23 | 1007.1 |
| 20260507231516 | 51 | 338 | 4.0 | 10.0 | 0.00 | 0.00 | 0.00 | 22 | 1007.1 |
| 20260507230516 | 51 | 338 | 5.0 | 12.0 | 0.00 | 0.00 | 0.00 | 23 | 1007.2 |
| 20260507225516 | 51 | 338 | 4.0 | 11.0 | 0.00 | 0.00 | 0.00 | 22 | 1007.3 |
| 20260507224516 | 51 | 315 | 6.0 | 12.0 | 0.00 | 0.00 | 0.00 | 23 | 1007.4 |
| 20260507223516 | 53 | 338 | 4.0 | 10.0 | 0.00 | 0.00 | 0.00 | 22 | 1007.1 |
| 20260507222516 | 53 | 203 | 2.0 | 5.0 | 0.00 | 0.00 | 0.00 | 22 | 1007.1 |
| 20260507221516 | 53 | 45 | 4.0 | 11.0 | 0.00 | 0.00 | 0.00 | 22 | 1007.2 |
| 20260507220556 | 52 | 338 | 6.0 | 17.0 | 0.00 | 0.00 | 0.00 | 23 | 1007.2 |
| 20260507215516 | 53 | 0 | 6.0 | 17.0 | 0.00 | 0.00 | 0.00 | 23 | 1007.3 |
| 20260507214516 | 52 | 0 | 5.0 | 17.0 | 0.00 | 0.00 | 0.00 | 23 | 1007.2 |
| 20260507213516 | 52 | 225 | 4.0 | 17.0 | 0.00 | 0.00 | 0.00 | 24 | 1007.2 |
| 20260507212516 | 52 | 180 | 5.0 | 17.0 | 0.00 | 0.00 | 0.00 | 24 | 1007.2 |
| 20260507211516 | 51 | 23 | 3.0 | 8.0 | 0.00 | 0.00 | 0.00 | 26 | 1007.1 |
| 20260507210516 | 51 | 45 | 7.0 | 14.0 | 0.00 | 0.00 | 0.00 | 26 | 1007.3 |
| 20260507205516 | 50 | 45 | 5.0 | 18.0 | 0.00 | 0.00 | 0.00 | 27 | 1007.2 |
| 20260507204516 | 52 | 0 | 5.0 | 13.0 | 0.00 | 0.00 | 0.00 | 25 | 1007.2 |
| 20260507203516 | 51 | 203 | 3.0 | 12.0 | 0.00 | 0.00 | 0.00 | 27 | 1007.0 |
| 20260507202516 | 51 | 270 | 4.0 | 15.0 | 0.00 | 0.00 | 0.00 | 29 | 1007.3 |
| 20260507201516 | 51 | 0 | 6.0 | 15.0 | 0.00 | 0.00 | 0.00 | 27 | 1007.4 |
| 20260507200516 | 52 | 315 | 7.0 | 15.0 | 0.00 | 0.00 | 0.00 | 24 | 1007.4 |
| 20260507195536 | 52 | 338 | 7.0 | 16.0 | 0.00 | 0.00 | 0.00 | 24 | 1007.4 |
| 20260507194516 | 53 | 338 | 8.0 | 18.0 | 0.00 | 0.00 | 0.00 | 23 | 1007.6 |
| 20260507193536 | 53 | 23 | 5.0 | 20.0 | 0.00 | 0.00 | 0.00 | 24 | 1007.6 |
| 20260507192516 | 53 | 315 | 6.0 | 17.0 | 0.00 | 0.00 | 0.00 | 23 | 1007.5 |
| 20260507191516 | 53 | 203 | 3.0 | 14.0 | 0.00 | 0.00 | 0.00 | 26 | 1007.6 |
| 20260507190516 | 52 | 225 | 5.0 | 14.0 | 0.00 | 0.00 | 0.00 | 25 | 1007.5 |
| 20260507185516 | 53 | 203 | 4.0 | 14.0 | 0.00 | 0.00 | 0.00 | 25 | 1007.7 |
| 20260507184516 | 52 | 0 | 5.0 | 16.0 | 0.00 | 0.00 | 0.00 | 26 | 1007.6 |
| 20260507183516 | 51 | 315 | 8.0 | 24.0 | 0.00 | 0.00 | 0.00 | 26 | 1007.8 |
| 20260507182516 | 51 | 338 | 7.0 | 19.0 | 0.00 | 0.00 | 0.00 | 22 | 1007.7 |
| 20260507181515 | 53 | 338 | 7.0 | 18.0 | 0.00 | 0.00 | 0.00 | 20 | 1007.7 |
| 20260507180515 | 53 | 315 | 6.0 | 15.0 | 0.00 | 0.00 | 0.00 | 21 | 1007.6 |
| 20260507175536 | 52 | 225 | 5.0 | 14.0 | 0.00 | 0.00 | 0.00 | 20 | 1007.8 |
| 20260507173516 | 53 | 203 | 5.0 | 18.0 | 0.00 | 0.00 | 0.00 | 21 | 1008.0 |
| 20260507172515 | 52 | 0 | 7.0 | 16.0 | 0.00 | 0.00 | 0.00 | 22 | 1008.0 |
| 20260507171536 | 52 | 338 | 8.0 | 17.0 | 0.00 | 0.00 | 0.00 | 21 | 1008.2 |
| 20260507170516 | 51 | 0 | 8.0 | 17.0 | 0.00 | 0.00 | 0.00 | 24 | 1008.4 |
| 20260507165516 | 52 | 315 | 7.0 | 21.0 | 0.00 | 0.00 | 0.00 | 23 | 1008.3 |
| 20260507164515 | 51 | 0 | 9.0 | 17.0 | 0.00 | 0.00 | 0.00 | 24 | 1008.4 |
| 20260507163515 | 51 | 0 | 5.0 | 15.0 | 0.00 | 0.00 | 0.00 | 26 | 1008.5 |
| 20260507162536 | 51 | 23 | 6.0 | 16.0 | 0.00 | 0.00 | 0.00 | 25 | 1008.6 |
| 20260507161516 | 51 | 315 | 6.0 | 21.0 | 0.00 | 0.00 | 0.00 | 25 | 1008.7 |
| 20260507160517 | 51 | 203 | 8.0 | 19.0 | 0.00 | 0.00 | 0.00 | 26 | 1008.7 |
| 20260507155517 | 49 | 338 | 10.0 | 22.0 | 0.00 | 0.00 | 0.00 | 27 | 1008.8 |
| 20260507154517 | 50 | 338 | 8.0 | 21.0 | 0.00 | 0.00 | 0.00 | 28 | 1008.8 |
| 20260507153517 | 49 | 338 | 9.0 | 19.0 | 0.00 | 0.00 | 0.00 | 28 | 1008.9 |
| 20260507152537 | 49 | 225 | 4.0 | 14.0 | 0.00 | 0.00 | 0.00 | 31 | 1008.9 |
| 20260507151517 | 49 | 225 | 4.0 | 16.0 | 0.00 | 0.00 | 0.00 | 33 | 1008.8 |
| 20260507150537 | 47 | 315 | 7.0 | 16.0 | 0.00 | 0.00 | 0.00 | 34 | 1008.9 |
| 20260507145517 | 45 | 270 | 4.0 | 12.0 | 0.00 | 0.00 | 0.00 | 42 | 1009.2 |
| 20260507144517 | 40 | 225 | 2.0 | 9.0 | 0.00 | 0.00 | 0.00 | 55 | 1009.1 |
| 20260507143517 | 37 | 203 | 4.0 | 7.0 | 0.00 | 0.00 | 0.00 | 63 | 1009.4 |
| 20260507142517 | 37 | 203 | 5.0 | 8.0 | 0.00 | 0.00 | 0.00 | 63 | 1009.6 |
| 20260507141517 | 37 | 225 | 2.0 | 5.0 | 0.00 | 0.00 | 0.00 | 63 | 1009.7 |
| 20260507140517 | 38 | 225 | 4.0 | 8.0 | 0.00 | 0.00 | 0.00 | 63 | 1009.8 |
| 20260507135517 | 38 | 225 | 5.0 | 11.0 | 0.00 | 0.00 | 0.00 | 62 | 1009.9 |
| 20260507134537 | 38 | 225 | 4.0 | 9.0 | 0.00 | 0.00 | 0.00 | 64 | 1009.9 |
| 20260507133517 | 36 | 225 | 3.0 | 12.0 | 0.00 | 0.00 | 0.00 | 64 | 1009.9 |
| 20260507132517 | 36 | 225 | 3.0 | 4.0 | 0.00 | 0.00 | 0.00 | 64 | 1010.0 |
| 20260507131517 | 35 | 225 | 3.0 | 4.0 | 0.00 | 0.00 | 0.00 | 64 | 1010.0 |
| 20260507130517 | 35 | 225 | 4.0 | 6.0 | 0.00 | 0.00 | 0.00 | 64 | 1010.1 |
| 20260507125517 | 36 | 225 | 5.0 | 6.0 | 0.00 | 0.00 | 0.00 | 62 | 1010.3 |
| 20260507124517 | 37 | 225 | 2.0 | 4.0 | 0.00 | 0.00 | 0.00 | 60 | 1010.4 |
| 20260507123517 | 36 | 225 | 1.0 | 3.0 | 0.00 | 0.00 | 0.00 | 61 | 1010.5 |
| 20260507122517 | 35 | 225 | 2.0 | 5.0 | 0.00 | 0.00 | 0.00 | 62 | 1010.5 |
| 20260507121517 | 33 | 270 | 1.0 | 6.0 | 0.00 | 0.00 | 0.00 | 65 | 1010.5 |
| 20260507120537 | 32 | 270 | 1.0 | 5.0 | 0.00 | 0.00 | 0.00 | 65 | 1010.4 |
| 20260507115517 | 31 | 0.0 | 2.0 | 0.00 | 0.00 | 0.00 | 67 | 1010.4 | |
| 20260507114517 | 30 | 0.0 | 0.0 | 0.00 | 0.00 | 0.00 | 68 | 1010.3 | |
| 20260507113517 | 30 | 0.0 | 0.0 | 0.00 | 0.00 | 0.00 | 68 | 1010.4 | |
| 20260507112517 | 29 | 0.0 | 0.0 | 0.00 | 0.00 | 0.00 | 67 | 1010.3 | |
| 20260507111517 | 29 | 0.0 | 1.0 | 0.00 | 0.00 | 0.00 | 67 | 1010.3 | |
| 20260507110517 | 29 | 0.0 | 2.0 | 0.00 | 0.00 | 0.00 | 68 | 1010.3 | |
| 20260507105537 | 28 | 293 | 2.0 | 3.0 | 0.00 | 0.00 | 0.00 | 68 | 1010.3 |
| 20260507104517 | 28 | 293 | 2.0 | 3.0 | 0.00 | 0.00 | 0.00 | 68 | 1010.3 |
| 20260507103517 | 28 | 293 | 1.0 | 2.0 | 0.00 | 0.00 | 0.00 | 68 | 1010.4 |
| 20260507102517 | 28 | 293 | 2.0 | 3.0 | 0.00 | 0.00 | 0.00 | 68 | 1010.4 |
| 20260507101517 | 28 | 293 | 2.0 | 3.0 | 0.00 | 0.00 | 0.00 | 68 | 1010.4 |
| 20260507100517 | 28 | 270 | 2.0 | 3.0 | 0.00 | 0.00 | 0.00 | 68 | 1010.4 |
| 20260507095517 | 28 | 270 | 2.0 | 3.0 | 0.00 | 0.00 | 0.00 | 67 | 1010.4 |
| 20260507094517 | 29 | 270 | 2.0 | 3.0 | 0.00 | 0.00 | 0.00 | 66 | 1010.5 |
| 20260507093517 | 29 | 270 | 2.0 | 3.0 | 0.00 | 0.00 | 0.00 | 66 | 1010.3 |
| 20260507092536 | 29 | 270 | 2.0 | 3.0 | 0.00 | 0.00 | 0.00 | 66 | 1010.4 |
| 20260507091516 | 30 | 270 | 2.0 | 3.0 | 0.00 | 0.00 | 0.00 | 66 | 1010.4 |
| 20260507090517 | 30 | 270 | 2.0 | 3.0 | 0.00 | 0.00 | 0.00 | 66 | 1010.5 |
| 20260507085516 | 30 | 270 | 2.0 | 3.0 | 0.00 | 0.00 | 0.00 | 65 | 1010.6 |
| 20260507084516 | 31 | 270 | 3.0 | 4.0 | 0.00 | 0.00 | 0.00 | 64 | 1010.6 |
| 20260507083517 | 32 | 270 | 3.0 | 4.0 | 0.00 | 0.00 | 0.00 | 63 | 1010.5 |
| 20260507082516 | 33 | 270 | 3.0 | 4.0 | 0.00 | 0.00 | 0.00 | 62 | 1010.6 |
| 20260507081516 | 34 | 270 | 1.0 | 3.0 | 0.00 | 0.00 | 0.00 | 61 | 1010.7 |
| 20260507080516 | 35 | 0.0 | 0.0 | 0.00 | 0.00 | 0.00 | 60 | 1010.7 | |
| 20260507075537 | 35 | 0.0 | 0.0 | 0.00 | 0.00 | 0.00 | 60 | 1010.7 | |
| 20260507074516 | 35 | 0.0 | 0.0 | 0.00 | 0.00 | 0.00 | 60 | 1010.7 | |
| 20260507073516 | 36 | 270 | 1.0 | 2.0 | 0.00 | 0.00 | 0.00 | 60 | 1010.7 |
| 20260507072516 | 36 | 0.0 | 2.0 | 0.00 | 0.00 | 0.00 | 59 | 1010.8 | |
| 20260507071516 | 36 | 0.0 | 1.0 | 0.00 | 0.00 | 0.00 | 59 | 1011.0 | |
| 20260507070516 | 36 | 0.0 | 0.0 | 0.00 | 0.00 | 0.00 | 59 | 1010.9 | |
| 20260507065517 | 36 | 0.0 | 2.0 | 0.00 | 0.00 | 0.00 | 59 | 1011.0 | |
| 20260507064516 | 36 | 0.0 | 2.0 | 0.00 | 0.00 | 0.00 | 60 | 1011.2 | |
| 20260507063536 | 36 | 0.0 | 0.0 | 0.00 | 0.00 | 0.00 | 59 | 1011.2 | |
| 20260507062516 | 36 | 0.0 | 0.0 | 0.00 | 0.00 | 0.00 | 59 | 1011.3 | |
| 20260507061516 | 36 | 0.0 | 0.0 | 0.00 | 0.00 | 0.00 | 59 | 1011.3 | |
| 20260507060516 | 36 | 0.0 | 1.0 | 0.00 | 0.00 | 0.00 | 58 | 1011.3 | |
| 20260507055536 | 36 | 0.0 | 2.0 | 0.00 | 0.00 | 0.00 | 57 | 1011.4 | |
| 20260507054516 | 37 | 0.0 | 2.0 | 0.00 | 0.00 | 0.00 | 56 | 1011.5 | |
| 20260507053616 | 37 | 0.0 | 0.0 | 0.00 | 0.00 | 0.00 | 56 | 1011.6 | |
| 20260507052516 | 37 | 0.0 | 0.0 | 0.00 | 0.00 | 0.00 | 55 | 1011.7 | |
| 20260507051536 | 37 | 0.0 | 2.0 | 0.00 | 0.00 | 0.00 | 54 | 1011.7 | |
| 20260507050516 | 37 | 0.0 | 2.0 | 0.00 | 0.00 | 0.00 | 55 | 1011.7 |